Вернуться в каталог

CZ-6A DEB

АктивенPO
NORAD 60771·DEBRIS·🇨🇳 China

Запущен Aug 6, 2024 с Taiyuan Satellite Launch Center

Loading…

Ближайшие Пролёты (ближайшие 24 часа)

TLE

СвежийSource: Space-Track

Эпоха: Sep 14, 2026, 10:46 UTC

1 60771U 24140EW  26257.44929050  .00003294  00000-0  88007-3 0  9991
2 60771  88.9681 258.5335 0051039  34.2825 326.1657 14.47391041109099

Отслеживайте CZ-6A DEB в реальном времени с AllMySat

Download on the App Store